Zurück zum Katalog

ARIANE 42P+ DEB

AktivHEO
NORAD 22670·DEBRIS·🇫🇷 France

Gestartet Oct 28, 1992 von Guiana Space Centre

Loading…

Nächste Überflüge (nächste 24 Stunden)

TLE

AktuellSource: Space-Track

Epoche: Sep 14, 2026, 15:39 UTC

1 22670U 92072C   26257.65243469  .00025239  00000-0  20217-2 0  9993
2 22670   6.7195 231.5374 5993639 292.0795  16.4068  4.09303876764901

Verfolge ARIANE 42P+ DEB in Echtzeit mit AllMySat

Download on the App Store